Location: Beaver Brook Trail
(44.0290°N, 71.8137°W)
Time: 09:49:19
(UTC+00:00)

ARIANE 6 FM1 Upper Stage - Pass Details

Date: 12 October 2024
Orbit: 558 x 596 km, 62.0° (Epoch: 11 November)

Event Time Altitude Azimuth Distance (km) Brightness Sun altitude
Rises 00:42:14 0° 328° (NNW) 2,827 6.9 -28.0°
Reaches altitude 10° 00:45:06 10° 347° (NNW) 1,931 5.7 -28.5°
Enters shadow 00:46:11 14° 360° (N) 1,676 5.2 -28.7°
